Location: Unspecified
(35.7250°N, 0.0000°E)
Time: 10:45:29
(UTC+00:00)

Vanguard 2 - Pass Details

Date: 26 June 2019
Orbit: 553 x 2938 km, 32.9° (Epoch: 19 July)

Event Time Altitude Azimuth Distance (km) Brightness Sun altitude
Rises 06:55:01 0° 241° (WSW) 2,739 9.8 23.6°
Reaches altitude 10° 06:57:05 10° 235° (SW) 1,915 9.1 24.0°
Maximum altitude 07:01:08 45° 161° (SSE) 951 8.4 24.8°
Drops below altitude 10° 07:06:45 10° 90° (E) 2,658 12.0 25.9°
Sets 07:10:06 0° 85° (E) 3,961 12.5 26.6°
